When you browse on this site, cookies collect data to enhance your experience and personalize the content and advertising you see.
Visit our Privacy Policy to learn more. By continuing to use the site, you agree to this use of cookies and data.
  • Em Portugal
  • Lista de países
  • Para 7 dias
  • Temperatura da água
  • Mapas de satélite
  • Mapa do tempo
  • Widgets de tempo
  • user-avatar
    Iniciar Sessão

    Previsão horária em Turgovisto

    Hoje, 20 Novembro, Terça-feira

    Tempo Temperatura Precipitação Vento Pressão Humidade
    00:00 +2°C° 0 mm 1 m/s 747 mmHg 89%
    01:00 +2°C° 0 mm 1 m/s 747 mmHg 89%
    02:00 +2°C° 0 mm 1 m/s 747 mmHg 86%
    03:00 +2°C° 0 mm 1 m/s 747 mmHg 86%
    04:00 +2°C° 0 mm 1 m/s 747 mmHg 86%
    05:00 +1°C° 0 mm 2 m/s 747 mmHg 87%
    06:00 +1°C° 0 mm 2 m/s 747 mmHg 86%
    07:00 0°C° 0 mm 3 m/s 748 mmHg 86%
    08:00 +1°C° 0 mm 3 m/s 748 mmHg 85%
    09:00 +1°C° 0 mm 4 m/s 748 mmHg 83%
    10:00 +3°C° 0 mm 4 m/s 748 mmHg 81%
    11:00 +4°C° 0 mm 4 m/s 748 mmHg 79%
    12:00 +4°C° 0.3 mm 4 m/s 748 mmHg 80%
    13:00 +4°C° 0.3 mm 4 m/s 747 mmHg 80%
    14:00 +4°C° 0.3 mm 4 m/s 747 mmHg 81%
    15:00 +4°C° 0.4 mm 4 m/s 747 mmHg 84%
    16:00 +4°C° 0.4 mm 4 m/s 747 mmHg 86%
    17:00 +4°C° 0.4 mm 4 m/s 746 mmHg 88%
    18:00 +4°C° 0.7 mm 4 m/s 746 mmHg 90%
    19:00 +4°C° 0.7 mm 4 m/s 746 mmHg 91%
    20:00 +4°C° 0.7 mm 4 m/s 746 mmHg 93%
    21:00 +4°C° 1.6 mm 4 m/s 746 mmHg 93%
    22:00 +5°C° 1.6 mm 4 m/s 745 mmHg 94%
    23:00 +5°C° 1.6 mm 3 m/s 745 mmHg 95%

    Amanhã, 21 Novembro, Quarta-feira

    Tempo Temperatura Precipitação Vento Pressão Humidade
    00:00 +5°C° 1.7 mm 3 m/s 745 mmHg 95%
    01:00 +5°C° 1.7 mm 3 m/s 745 mmHg 96%
    02:00 +5°C° 1.7 mm 3 m/s 744 mmHg 96%
    03:00 +5°C° 0.6 mm 3 m/s 744 mmHg 96%
    04:00 +7°C° 0.6 mm 3 m/s 744 mmHg 96%
    05:00 +7°C° 0.6 mm 3 m/s 743 mmHg 96%
    06:00 +7°C° 0.3 mm 3 m/s 743 mmHg 96%
    07:00 +7°C° 0.3 mm 3 m/s 743 mmHg 96%
    08:00 +7°C° 0.3 mm 3 m/s 743 mmHg 96%
    09:00 +6°C° 0.5 mm 4 m/s 743 mmHg 95%
    10:00 +6°C° 0.5 mm 4 m/s 743 mmHg 95%
    11:00 +6°C° 0.5 mm 4 m/s 743 mmHg 94%
    12:00 +6°C° 0.5 mm 4 m/s 743 mmHg 94%
    13:00 +6°C° 0.5 mm 4 m/s 743 mmHg 93%
    14:00 +6°C° 0.5 mm 4 m/s 743 mmHg 93%
    15:00 +6°C° 0.6 mm 5 m/s 743 mmHg 93%
    16:00 +6°C° 0.6 mm 5 m/s 743 mmHg 93%
    17:00 +6°C° 0.6 mm 5 m/s 743 mmHg 92%
    18:00 +5°C° 0.7 mm 5 m/s 744 mmHg 92%
    19:00 +5°C° 0.7 mm 5 m/s 744 mmHg 91%
    20:00 +5°C° 0.7 mm 5 m/s 745 mmHg 91%
    21:00 +3°C° 0.7 mm 5 m/s 745 mmHg 90%
    22:00 +3°C° 0.7 mm 5 m/s 745 mmHg 90%
    23:00 +2°C° 0.7 mm 5 m/s 746 mmHg 90%

    Depois de amanhã, 22 Novembro, Quinta-feira

    Tempo Temperatura Precipitação Vento Pressão Humidade
    00:00 +2°C° 0.4 mm 5 m/s 746 mmHg 89%
    01:00 +1°C° 0.4 mm 4 m/s 746 mmHg 89%
    02:00 +1°C° 0.4 mm 4 m/s 747 mmHg 88%
    03:00 +1°C° 0.2 mm 4 m/s 747 mmHg 89%
    04:00 +1°C° 0.2 mm 4 m/s 747 mmHg 89%
    05:00 0°C° 0.2 mm 4 m/s 747 mmHg 89%
    06:00 +1°C° 0.1 mm 3 m/s 748 mmHg 88%
    07:00 +1°C° 0.1 mm 3 m/s 748 mmHg 88%
    08:00 +1°C° 0.1 mm 3 m/s 749 mmHg 88%
    09:00 +1°C° 0 mm 3 m/s 749 mmHg 86%
    10:00 +2°C° 0 mm 3 m/s 749 mmHg 84%
    11:00 +2°C° 0 mm 3 m/s 749 mmHg 81%
    12:00 +3°C° 0 mm 3 m/s 749 mmHg 79%
    13:00 +3°C° 0 mm 3 m/s 749 mmHg 77%
    14:00 +5°C° 0 mm 2 m/s 749 mmHg 74%
    15:00 +4°C° 0 mm 2 m/s 750 mmHg 75%
    16:00 +4°C° 0 mm 2 m/s 750 mmHg 77%
    17:00 +3°C° 0 mm 2 m/s 750 mmHg 78%
    18:00 +3°C° 0 mm 2 m/s 750 mmHg 78%
    19:00 +2°C° 0 mm 2 m/s 751 mmHg 79%
    20:00 +2°C° 0 mm 2 m/s 751 mmHg 79%
    21:00 +3°C° 0 mm 1 m/s 751 mmHg 80%
    22:00 +2°C° 0 mm 1 m/s 751 mmHg 81%
    23:00 +2°C° 0 mm 1 m/s 751 mmHg 81%

    23 Novembro, Sexta-feira

    Tempo Temperatura Precipitação Vento Pressão Humidade
    00:00 +2°C° 0 mm 1 m/s 751 mmHg 82%
    01:00 +1°C° 0 mm 1 m/s 751 mmHg 83%
    02:00 +1°C° 0 mm 1 m/s 752 mmHg 83%
    03:00 +1°C° 0 mm 1 m/s 752 mmHg 84%
    04:00 +1°C° 0 mm 1 m/s 752 mmHg 84%
    05:00 0°C° 0 mm 1 m/s 752 mmHg 84%
    06:00 +1°C° 0 mm 1 m/s 752 mmHg 83%
    07:00 +1°C° 0 mm 1 m/s 753 mmHg 81%
    08:00 +1°C° 0 mm 1 m/s 753 mmHg 80%
    09:00 +2°C° 0 mm 1 m/s 753 mmHg 71%
    10:00 +3°C° 0 mm 1 m/s 753 mmHg 62%
    11:00 +4°C° 0 mm 2 m/s 754 mmHg 54%
    12:00 +4°C° 0 mm 2 m/s 753 mmHg 51%
    13:00 +5°C° 0 mm 2 m/s 753 mmHg 49%
    14:00 +5°C° 0 mm 2 m/s 753 mmHg 47%
    15:00 +4°C° 0 mm 2 m/s 753 mmHg 52%
    16:00 +3°C° 0 mm 2 m/s 753 mmHg 57%
    17:00 +3°C° 0 mm 1 m/s 753 mmHg 62%
    18:00 +3°C° 0 mm 1 m/s 754 mmHg 64%
    19:00 +2°C° 0 mm 1 m/s 754 mmHg 65%
    20:00 +2°C° 0 mm 1 m/s 754 mmHg 67%
    21:00 +2°C° 0 mm 1 m/s 754 mmHg 67%
    22:00 +2°C° 0 mm 1 m/s 754 mmHg 68%
    23:00 +1°C° 0 mm 1 m/s 754 mmHg 68%

    24 Novembro, Sábado

    Tempo Temperatura Precipitação Vento Pressão Humidade
    00:00 0°C° 0 mm 0 m/s 754 mmHg 68%
    01:00 0°C° 0 mm 0 m/s 754 mmHg 68%
    02:00 0°C° 0 mm 0 m/s 754 mmHg 68%
    03:00 0°C° 0 mm 0 m/s 753 mmHg 68%
    04:00 0°C° 0 mm 0 m/s 753 mmHg 69%
    05:00 0°C° 0 mm 0 m/s 753 mmHg 69%
    06:00 0°C° 0 mm 0 m/s 753 mmHg 68%
    07:00 0°C° 0 mm 0 m/s 753 mmHg 67%
    08:00 0°C° 0 mm 0 m/s 753 mmHg 66%
    09:00 +3°C° 0 mm 1 m/s 753 mmHg 60%
    10:00 +5°C° 0 mm 1 m/s 753 mmHg 54%
    11:00 +7°C° 0 mm 1 m/s 753 mmHg 48%
    12:00 +7°C° 0 mm 1 m/s 752 mmHg 47%
    13:00 +8°C° 0 mm 1 m/s 751 mmHg 46%
    14:00 +9°C° 0 mm 1 m/s 751 mmHg 45%
    15:00 +7°C° 0 mm 1 m/s 751 mmHg 51%
    16:00 +6°C° 0 mm 1 m/s 750 mmHg 57%
    17:00 +5°C° 0 mm 1 m/s 750 mmHg 64%
    18:00 +4°C° 0 mm 1 m/s 750 mmHg 67%
    19:00 +4°C° 0 mm 1 m/s 750 mmHg 71%
    20:00 +3°C° 0 mm 2 m/s 750 mmHg 74%
    21:00 +2°C° 0 mm 2 m/s 750 mmHg 76%
    22:00 +2°C° 0 mm 2 m/s 750 mmHg 77%
    23:00 +2°C° 0 mm 2 m/s 749 mmHg 79%

    25 Novembro, Domingo

    Tempo Temperatura Precipitação Vento Pressão Humidade
    00:00 +2°C° 0 mm 2 m/s 749 mmHg 79%
    01:00 +2°C° 0 mm 2 m/s 749 mmHg 80%
    02:00 +2°C° 0 mm 2 m/s 748 mmHg 80%
    03:00 +2°C° 0 mm 2 m/s 748 mmHg 79%
    04:00 +3°C° 0 mm 1 m/s 748 mmHg 78%
    05:00 +3°C° 0 mm 1 m/s 747 mmHg 78%
    06:00 +3°C° 0 mm 1 m/s 747 mmHg 76%
    07:00 +3°C° 0 mm 1 m/s 747 mmHg 75%
    08:00 +2°C° 0 mm 2 m/s 747 mmHg 73%
    09:00 +4°C° 0 mm 2 m/s 747 mmHg 66%
    10:00 +6°C° 0 mm 2 m/s 747 mmHg 60%
    11:00 +8°C° 0 mm 2 m/s 747 mmHg 53%
    12:00 +9°C° 0 mm 2 m/s 746 mmHg 51%
    13:00 +10°C° 0 mm 2 m/s 746 mmHg 49%
    14:00 +12°C° 0 mm 2 m/s 745 mmHg 46%
    15:00 +10°C° 0 mm 2 m/s 745 mmHg 52%
    16:00 +9°C° 0 mm 1 m/s 745 mmHg 57%
    17:00 +8°C° 0 mm 1 m/s 744 mmHg 63%
    18:00 +7°C° 0 mm 2 m/s 744 mmHg 64%
    19:00 +7°C° 0 mm 2 m/s 744 mmHg 66%
    20:00 +6°C° 0 mm 2 m/s 744 mmHg 68%
    21:00 +6°C° 0 mm 2 m/s 744 mmHg 69%
    22:00 +6°C° 0 mm 2 m/s 744 mmHg 71%
    23:00 +6°C° 0 mm 2 m/s 743 mmHg 72%
    Mostrar mais